Powrót do katalogu

CZ-4 DEB

AktywnySSO
NORAD 28071·DEBRIS·🇨🇳 China

Wystrzelony Oct 14, 1999 z Taiyuan Satellite Launch Center

Loading…

Następne Przeloty (najbliższe 24 godziny)

TLE

Starzejące sięSource: Space-Track

Epoka: Sep 10, 2026, 01:40 UTC

1 28071U 99057NB  26253.06986206  .00000113  00000-0  52907-4 0  9995
2 28071  98.6147 184.2266 0106578   1.1194  63.3126 14.34510091258731

Śledź CZ-4 DEB w czasie rzeczywistym z AllMySat

Download on the App Store